Location: 10033 Water Well
(34.0865°N, 106.8959°W)
Time: 02:21:24
(UTC+00:00)

Daily predictions for brighter satellites

Satellite Brightness Start Highest point End
(mag) Time Altitude Azimuth Time Altitude Azimuth Time Altitude Azimuth
NOSS 3-4 (A) 3.3 00:39:22 10° SSW 00:44:24 53° ESE 00:49:41 10° NE
NOSS 3-4 (C) 3.3 00:39:29 10° SSW 00:44:33 53° ESE 00:49:50 10° NE
ATLAS 5 CENTAUR R/B 2.1 00:43:12 10° WSW 00:45:56 33° NW 00:48:43 10° NNE
Cosmos 2056 Rocket 3.9 00:43:21 10° SSW 00:48:29 65° WNW 00:53:35 10° N
NOSS 3-2 (C) 4.3 00:42:03 10° NNW 00:49:49 62° ENE 00:58:51 10° SE
OAO 3 Rocket 3.2 00:45:21 10° W 00:50:13 90° SSW 00:55:02 10° E
SAR-Lupe-4 4.2 00:47:29 10° SE 00:50:43 33° ENE 00:53:58 10° N
Cosmos 1743 Rocket 4.5 00:47:08 10° NNW 00:51:22 53° W 00:55:32 10° S
Cosmos 371 Rocket 3.2 00:47:25 10° N 00:52:09 65° ENE 00:56:51 10° SSE
ARIANE 5 R/B 2.5 00:47:02 10° SSE 00:52:12 70° ENE 00:57:24 10° N
Cosmos 1633 Rocket 3.2 00:49:42 10° N 00:53:53 49° E 00:58:02 10° SSE
IRS-1C 4.1 00:48:45 10° SSE 00:54:00 70° ENE 00:59:18 10° N
Cosmos 2366 rocket 4.3 00:48:38 10° N 00:54:42 46° E 01:00:44 10° SSE
Cosmos 2218 Rocket 4.4 00:49:03 10° N 00:55:05 42° E 01:01:04 10° SSE
SL-4 R/B 3.0 00:55:52 10° NNW 00:59:10 25° NNE 01:02:12 11° E
Cosmos 2327 Rocket 4.5 00:54:21 10° N 01:00:38 82° E 01:06:47 10° S
Aurora 2 Rocket 4.1 00:58:54 10° SSW 01:00:49 15° S 01:02:49 10° SE
Cosmos 1666 Rocket 3.5 00:56:26 10° N 01:00:53 78° E 01:05:18 10° S
AQUARIUS 4.0 00:56:42 10° SSE 01:01:04 73° ENE 01:05:28 10° N
Meteor 1-15 Rocket 4.4 00:56:45 10° N 01:02:34 55° E 01:08:16 10° SSE
CZ-2D R/B 4.3 01:00:42 10° SE 01:03:51 24° ENE 01:07:00 10° NNE
DNEPR-1 R/B 3.8 00:59:47 10° SSW 01:04:28 53° ESE 01:08:41 10° NE
Cosmos 1328 Rocket 4.3 01:00:56 10° SSW 01:05:11 56° W 01:09:29 10° N
Cosmos 2341 Rocket 4.0 01:00:15 10° N 01:06:32 63° E 01:12:42 10° SSE
USA 32 4.4 01:02:58 10° N 01:08:10 69° W 01:13:20 10° S
USA 276 1.8 01:06:45 10° WSW 01:08:57 53° NW 01:10:44 16° NE
SKYMED 2 3.5 01:06:27 10° NNE 01:10:49 82° ESE 01:15:08 10° S
Cosmos 1953 2.4 01:10:08 10° N 01:13:42 44° E 01:17:13 10° SSE
Cosmos 1954 Rocket 4.0 01:09:40 10° NNW 01:14:53 87° WSW 01:20:07 10° SSE
Orbus 7S 4.2 01:15:56 10° SSW 01:16:38 12° S 01:17:19 10° SSE
COSMO-SKYMED 1 2.5 01:12:43 10° NNE 01:16:45 54° E 01:20:46 10° S
OAO 2 Rocket 3.3 01:12:12 10° W 01:17:04 75° SSW 01:21:35 12° ESE
MOS 1 Rocket 4.4 01:11:57 10° S 01:17:12 57° W 01:22:21 10° NNW
Okean 2 3.7 01:15:43 10° SSE 01:19:17 38° E 01:22:50 10° NNE
Meteor 1-22 Rocket 4.4 01:13:45 10° NNW 01:19:20 75° W 01:24:41 10° S
Resurs 01 Rocket 3.6 01:22:40 12° NNE 01:22:40 12° NNE 01:23:04 10° NNE
Meteor 2-13 Rocket 4.5 01:15:01 10° S 01:21:02 61° E 01:27:05 10° NNE
RESURS DK-1 3.1 01:18:40 10° SSE 01:22:11 30° ESE 01:23:53 22° ENE
SPOT 1/Viking Rocket 3.5 01:17:34 10° SSE 01:22:43 79° ENE 01:27:52 10° N
Helios 1A Rocket 3.4 01:22:56 23° ENE 01:23:35 25° E 01:26:22 10° SSE
Cosmos 1959 Rocket 4.4 01:19:16 10° N 01:25:24 71° E 01:31:32 10° SSE
Cosmos 1515 Rocket 3.5 01:22:13 10° S 01:26:36 87° W 01:31:02 10° N
USA 215 3.6 01:20:23 10° NE 01:26:51 65° NW 01:33:17 10° WSW
YAOGAN 1 2.5 01:26:57 10° SSE 01:31:06 57° ENE 01:35:16 10° N
Cosmos 1331 Rocket 4.1 01:26:25 10° SSW 01:31:32 78° WNW 01:36:40 10° NNE
Cosmos 968 Rocket 3.6 01:27:05 10° N 01:32:03 47° ENE 01:36:56 10° SE
Cosmos 1603 4.0 01:31:28 10° SSW 01:37:06 68° WNW 01:42:43 10° NNE
Cosmos 1703 4.3 01:35:25 10° SSW 01:38:31 38° W 01:41:39 10° N
Cosmos 332 Rocket 3.9 01:34:47 10° N 01:39:24 48° ENE 01:44:01 10° SE
Cosmos 1302 Rocket 4.2 01:34:43 10° S 01:39:42 48° ESE 01:42:48 22° NE
Cosmos 1850 Rocket 4.3 01:37:01 10° N 01:42:03 42° ENE 01:47:04 10° SE
NOAA 6 4.1 01:38:55 10° SSE 01:43:48 50° ENE 01:48:43 10° N
SJ 16-02 3.6 01:44:50 10° NW 01:48:25 26° W 01:52:00 10° SSW
PSLV R/B 3.3 01:48:12 10° SSE 01:52:17 73° ENE 01:56:27 10° N
Cosmos 1833 Rocket 3.5 01:47:41 10° SSE 01:52:13 29° ESE 01:52:13 29° ESE
Cosmos 1452 Rocket 3.9 01:49:02 10° SSW 01:54:12 64° WNW 01:59:26 10° N
USA 267 4.1 01:55:39 27° NE 01:56:41 28° NNE 02:02:02 10° NNW
IUS-18 SRM-1 4.4 01:54:34 10° SW 01:58:41 46° SSE 02:04:52 26° E
USA 238 DEB 4.1 01:52:59 10° NNW 02:00:29 57° NE 02:07:18 15° SE
USA 238 4.1 01:53:05 10° NNW 02:00:35 56° NE 02:07:10 16° SE
Cosmos 1933 Rocket 3.4 01:58:08 10° N 02:02:32 86° E 02:06:52 10° S
Cosmos 2369 Rocket 4.5 01:58:14 10° NW 02:02:48 25° WSW 02:07:20 10° SSW
BREEZE M DEB (TANK) 3.0 02:01:24 10° NW 02:04:14 72° NE 02:06:22 35° ESE
Okean 3 3.4 02:00:32 10° S 02:04:35 79° W 02:06:25 32° N
Spot 4 Rocket 4.4 02:04:31 10° S 02:09:34 63° WSW 02:14:39 10° NNW
ISS -1.5 02:07:43 10° WNW 02:10:01 17° NNW 02:10:14 17° NNW
Cosmos 1821 Rocket 4.3 02:04:50 10° NNW 02:10:57 65° W 02:16:58 10° S
Cosmos 1992 Rocket 4.2 02:07:44 10° S 02:12:13 49° ESE 02:12:13 49° ESE
SL-08 R/B 4.5 02:10:32 10° N 02:16:56 65° E 02:23:21 10° SSE
Cosmos 1339 Rocket 4.3 02:12:39 10° S 02:18:55 85° E 02:24:09 15° N
IRAS Rocket 4.1 02:13:47 10° SSE 02:19:15 90° ENE 02:24:48 10° NNW
Meteor 2-19 Rocket 4.4 02:22:41 10° S 02:28:05 59° ESE 02:28:05 59° ESE
OAO 3 Rocket 4.1 02:28:39 10° W 02:33:08 39° SSW 02:33:27 39° SSW
DELTA 2 R/B (1) 3.6 02:30:24 10° WSW 02:35:31 70° S 02:35:31 70° S
SL-4 R/B 3.5 02:33:16 10° WNW 02:35:57 31° W 02:35:57 31° W
Resurs 01 Rocket 3.6 02:52:19 10° SSW 03:00:02 11° NNW 03:00:11 10° NNW
CZ-3 Stage 3 4.2 03:28:40 10° WSW 03:31:58 22° WSW 03:31:58 22° WSW
Atlas Centaur 2 4.2 11:28:47 18° SSE 11:30:02 19° SSE 11:34:26 10° ESE
Meteor 1-13 Rocket 4.5 11:49:53 38° N 11:52:15 71° E 11:58:08 10° SSE
